Location: Overspoor
(51.4747°N, 5.6641°E)
Time: 20:32:29
(UTC+01:00)

N. Korean satellite - Visible Passes

Search period start: 16 January 2022 00:00
Search period end: 26 January 2022 00:00
Orbit: 446 x 492 km, 97.3° (Epoch: 16 January)

Date Brightness Start Highest point End Pass type
(mag) Time Alt. Az. Time Alt. Az. Time Alt. Az.
16 Jan 8.8 05:24:41 10° NNE 05:26:25 22° NE 05:26:25 22° NE visible
16 Jan 7.7 06:58:01 10° N 07:00:28 24° NW 07:00:28 24° NW visible
16 Jan 8.9 17:36:51 10° SSW 17:39:49 27° W 17:42:52 10° NW visible
17 Jan 9.7 04:56:22 10° NE 04:57:21 14° ENE 04:57:21 14° ENE visible
17 Jan 7.0 06:28:36 10° N 06:31:24 42° NW 06:31:24 42° NW visible
18 Jan 7.0 05:59:26 10° NNE 06:02:20 54° NNE 06:02:20 54° NNE visible
18 Jan 8.5 07:34:10 10° NNW 07:35:41 12° WNW 07:36:24 12° WNW visible
18 Jan 9.9 18:13:42 10° WSW 18:15:06 12° W 18:16:32 10° WNW visible
19 Jan 8.2 05:30:31 10° NNE 05:33:15 33° ENE 05:33:15 33° ENE visible
19 Jan 7.8 07:04:01 10° NNW 07:06:53 22° WNW 07:07:19 22° WNW visible
19 Jan 9.2 17:42:52 10° SSW 17:45:43 24° W 17:48:38 10° NW visible
20 Jan 9.4 05:01:59 10° NE 05:04:09 18° E 05:04:09 18° E visible
20 Jan 6.9 06:34:29 10° N 06:37:55 42° WNW 06:38:12 41° W visible
21 Jan 6.4 06:05:11 10° NNE 06:08:50 90° WNW 06:09:05 77° SSW visible
21 Jan 8.6 07:40:22 10° NW 07:41:23 11° WNW 07:42:24 10° WNW visible
21 Jan 10.2 18:20:09 10° W 18:20:53 10° W 18:21:37 10° WNW visible
22 Jan 7.8 05:36:08 10° NNE 05:39:37 42° E 05:39:58 40° ESE visible
22 Jan 7.9 07:09:50 10° NNW 07:12:30 20° WNW 07:14:02 16° W visible
22 Jan 9.5 17:48:41 10° SW 17:51:24 21° W 17:54:10 10° NW visible
23 Jan 9.1 05:07:25 10° NE 05:10:15 21° E 05:10:50 20° ESE visible
23 Jan 7.1 06:40:08 10° N 06:43:31 37° WNW 06:44:53 26° WSW visible
24 Jan 10.0 04:39:52 10° ENE 04:40:44 11° E 04:41:36 10° E visible
24 Jan 6.4 06:10:44 10° N 06:14:23 78° WNW 06:15:45 36° SSW visible
25 Jan 7.5 05:41:33 10° NNE 05:45:06 48° E 05:46:36 29° SSE visible
25 Jan 8.1 07:15:26 10° NNW 07:17:56 18° WNW 07:20:25 10° WSW visible
25 Jan 9.6 17:54:19 10° SW 17:56:52 19° W 17:59:27 10° NW visible
